| time (UTC) | temp F | wind direction | speed MPH | gust MPH | rain 1hr in | rain 24hr in | rain mn in | humidity % | barometer mb |
| 20260508183603 | 61 | 162 | 3.0 | 8.0 | 0.00 | 0.00 | 0.00 | 58 | 1014.4 |
| 20260508182913 | 62 | 182 | 4.0 | 8.0 | 0.00 | 0.00 | 0.00 | 57 | 1014.4 |
| 20260508182012 | 63 | 201 | 3.0 | 6.0 | 0.00 | 0.00 | 0.00 | 57 | 1014.6 |
| 20260508180903 | 63 | 146 | 3.0 | 6.0 | 0.00 | 0.00 | 0.00 | 57 | 1014.5 |
| 20260508180003 | 63 | 180 | 5.0 | 7.0 | 0.00 | 0.00 | 0.00 | 59 | 1014.5 |
| 20260508175403 | 63 | 199 | 4.0 | 6.0 | 0.00 | 0.00 | 0.00 | 59 | 1014.2 |
| 20260508174503 | 63 | 183 | 4.0 | 6.0 | 0.00 | 0.00 | 0.00 | 58 | 1014.4 |
| 20260508173603 | 64 | 154 | 4.0 | 8.0 | 0.00 | 0.00 | 0.00 | 54 | 1014.1 |
| 20260508172703 | 65 | 87 | 4.0 | 5.0 | 0.00 | 0.00 | 0.00 | 55 | 1014.0 |
| 20260508171803 | 64 | 204 | 4.0 | 5.0 | 0.00 | 0.00 | 0.00 | 55 | 1013.9 |
| 20260508170903 | 65 | 147 | 4.0 | 5.0 | 0.00 | 0.00 | 0.00 | 53 | 1014.2 |
| 20260508170003 | 65 | 213 | 5.0 | 8.0 | 0.00 | 0.00 | 0.00 | 53 | 1013.9 |
| 20260508165403 | 65 | 186 | 4.0 | 8.0 | 0.00 | 0.00 | 0.00 | 52 | 1014.2 |
| 20260508164503 | 65 | 232 | 4.0 | 6.0 | 0.00 | 0.00 | 0.00 | 52 | 1013.9 |
| 20260508163603 | 65 | 124 | 3.0 | 4.0 | 0.00 | 0.00 | 0.00 | 51 | 1014.0 |
| 20260508162703 | 65 | 192 | 5.0 | 7.0 | 0.00 | 0.00 | 0.00 | 51 | 1013.5 |
| 20260508161803 | 66 | 73 | 4.0 | 6.0 | 0.00 | 0.00 | 0.00 | 51 | 1013.7 |
| 20260508161113 | 67 | 230 | 4.0 | 6.0 | 0.00 | 0.00 | 0.00 | 50 | 1014.0 |
| 20260508160003 | 66 | 236 | 6.0 | 9.0 | 0.00 | 0.00 | 0.00 | 51 | 1013.8 |
| 20260508155403 | 66 | 214 | 5.0 | 9.0 | 0.00 | 0.00 | 0.00 | 50 | 1013.6 |
| 20260508154503 | 66 | 171 | 4.0 | 7.0 | 0.00 | 0.00 | 0.00 | 51 | 1013.7 |
| 20260508153603 | 67 | 196 | 4.0 | 9.0 | 0.00 | 0.00 | 0.00 | 51 | 1013.9 |
| 20260508152703 | 67 | 185 | 5.0 | 8.0 | 0.00 | 0.00 | 0.00 | 52 | 1014.1 |
| 20260508151803 | 67 | 207 | 6.0 | 8.0 | 0.00 | 0.00 | 0.00 | 50 | 1014.0 |
| 20260508150903 | 67 | 218 | 5.0 | 7.0 | 0.00 | 0.00 | 0.00 | 50 | 1014.0 |
| 20260508150004 | 66 | 145 | 5.0 | 7.0 | 0.00 | 0.00 | 0.00 | 50 | 1013.8 |
| 20260508145403 | 66 | 155 | 5.0 | 7.0 | 0.00 | 0.00 | 0.00 | 50 | 1013.9 |
| 20260508144503 | 66 | 153 | 6.0 | 8.0 | 0.00 | 0.00 | 0.00 | 46 | 1014.1 |
| 20260508143603 | 66 | 129 | 5.0 | 8.0 | 0.00 | 0.00 | 0.00 | 46 | 1013.8 |
| 20260508142703 | 66 | 165 | 5.0 | 8.0 | 0.00 | 0.00 | 0.00 | 46 | 1013.9 |
| 20260508141803 | 65 | 182 | 7.0 | 11.0 | 0.00 | 0.00 | 0.00 | 46 | 1014.1 |
| 20260508140903 | 65 | 178 | 8.0 | 11.0 | 0.00 | 0.00 | 0.00 | 46 | 1014.0 |
| 20260508140003 | 66 | 183 | 7.0 | 10.0 | 0.00 | 0.00 | 0.00 | 46 | 1014.1 |
| 20260508135403 | 66 | 186 | 7.0 | 10.0 | 0.00 | 0.00 | 0.00 | 46 | 1014.0 |
| 20260508134503 | 67 | 174 | 6.0 | 9.0 | 0.00 | 0.00 | 0.00 | 49 | 1013.9 |
| 20260508133603 | 66 | 146 | 7.0 | 9.0 | 0.00 | 0.00 | 0.00 | 45 | 1014.1 |
| 20260508132703 | 65 | 171 | 6.0 | 8.0 | 0.00 | 0.00 | 0.00 | 50 | 1013.9 |
| 20260508131803 | 65 | 168 | 6.0 | 12.0 | 0.00 | 0.00 | 0.00 | 47 | 1013.9 |
| 20260508130903 | 65 | 203 | 7.0 | 9.0 | 0.00 | 0.00 | 0.00 | 50 | 1013.9 |
| 20260508130003 | 65 | 217 | 7.0 | 9.0 | 0.00 | 0.00 | 0.00 | 47 | 1013.7 |
| 20260508125403 | 65 | 149 | 6.0 | 9.0 | 0.00 | 0.00 | 0.00 | 49 | 1013.7 |
| 20260508124503 | 65 | 170 | 6.0 | 8.0 | 0.00 | 0.00 | 0.00 | 50 | 1014.1 |
| 20260508123604 | 64 | 209 | 7.0 | 10.0 | 0.00 | 0.00 | 0.00 | 49 | 1013.9 |
| 20260508122703 | 64 | 250 | 9.0 | 12.0 | 0.00 | 0.00 | 0.00 | 50 | 1013.8 |
| 20260508121803 | 65 | 250 | 7.0 | 10.0 | 0.00 | 0.00 | 0.00 | 49 | 1013.7 |
| 20260508120903 | 65 | 187 | 5.0 | 10.0 | 0.00 | 0.00 | 0.00 | 50 | 1013.7 |
| 20260508120003 | 65 | 165 | 5.0 | 8.0 | 0.00 | 0.00 | 0.00 | 50 | 1013.8 |
| 20260508115403 | 64 | 183 | 6.0 | 11.0 | 0.00 | 0.00 | 0.00 | 51 | 1013.7 |
| 20260508114503 | 64 | 207 | 6.0 | 11.0 | 0.00 | 0.00 | 0.00 | 52 | 1013.7 |
| 20260508113603 | 63 | 242 | 7.0 | 11.0 | 0.00 | 0.00 | 0.00 | 55 | 1013.7 |
| 20260508112703 | 64 | 129 | 6.0 | 8.0 | 0.00 | 0.00 | 0.00 | 51 | 1013.8 |
| 20260508111803 | 64 | 183 | 6.0 | 8.0 | 0.00 | 0.00 | 0.00 | 52 | 1014.0 |
| 20260508110903 | 63 | 194 | 6.0 | 8.0 | 0.00 | 0.00 | 0.00 | 56 | 1013.8 |
| 20260508110004 | 63 | 192 | 7.0 | 11.0 | 0.00 | 0.00 | 0.00 | 58 | 1013.6 |
| 20260508105614 | 63 | 194 | 7.0 | 11.0 | 0.00 | 0.00 | 0.00 | 57 | 1013.8 |
| 20260508104503 | 63 | 168 | 6.0 | 8.0 | 0.00 | 0.00 | 0.00 | 55 | 1013.8 |
| 20260508103813 | 62 | 181 | 6.0 | 8.0 | 0.00 | 0.00 | 0.00 | 58 | 1013.8 |
| 20260508102703 | 62 | 188 | 6.0 | 8.0 | 0.00 | 0.00 | 0.00 | 57 | 1013.5 |
| 20260508101803 | 63 | 140 | 4.0 | 8.0 | 0.00 | 0.00 | 0.00 | 58 | 1013.6 |
| 20260508100903 | 62 | 173 | 5.0 | 8.0 | 0.00 | 0.00 | 0.00 | 60 | 1013.6 |
| 20260508100003 | 61 | 104 | 5.0 | 8.0 | 0.00 | 0.00 | 0.00 | 61 | 1013.7 |
| 20260508095403 | 61 | 178 | 5.0 | 8.0 | 0.00 | 0.00 | 0.00 | 62 | 1013.6 |
| 20260508094503 | 61 | 138 | 5.0 | 8.0 | 0.00 | 0.00 | 0.00 | 61 | 1013.5 |
| 20260508093604 | 61 | 181 | 4.0 | 6.0 | 0.00 | 0.00 | 0.00 | 63 | 1013.2 |
| 20260508092914 | 61 | 139 | 4.0 | 6.0 | 0.00 | 0.00 | 0.00 | 66 | 1013.3 |
| 20260508091803 | 61 | 106 | 4.0 | 6.0 | 0.00 | 0.00 | 0.00 | 68 | 1013.5 |
| 20260508090903 | 60 | 61 | 4.0 | 8.0 | 0.00 | 0.00 | 0.00 | 72 | 1013.4 |
| 20260508090003 | 58 | 121 | 4.0 | 6.0 | 0.00 | 0.00 | 0.00 | 70 | 1013.6 |
| 20260508085403 | 59 | 102 | 3.0 | 5.0 | 0.00 | 0.00 | 0.00 | 69 | 1013.6 |
| 20260508084713 | 60 | 60 | 2.0 | 5.0 | 0.00 | 0.00 | 0.00 | 71 | 1013.8 |
| 20260508083603 | 58 | 87 | 3.0 | 6.0 | 0.00 | 0.00 | 0.00 | 73 | 1013.5 |
| 20260508082913 | 58 | 76 | 2.0 | 4.0 | 0.00 | 0.00 | 0.00 | 76 | 1013.5 |
| 20260508081803 | 56 | 166 | 2.0 | 4.0 | 0.00 | 0.00 | 0.00 | 76 | 1013.4 |
| 20260508080903 | 56 | 83 | 2.0 | 3.0 | 0.00 | 0.00 | 0.00 | 76 | 1013.7 |
| 20260508080003 | 55 | 141 | 2.0 | 3.0 | 0.00 | 0.00 | 0.00 | 75 | 1013.6 |
| 20260508075404 | 56 | 137 | 2.0 | 4.0 | 0.00 | 0.00 | 0.00 | 75 | 1013.6 |
| 20260508074503 | 56 | 289 | 1.0 | 4.0 | 0.00 | 0.00 | 0.00 | 75 | 1013.4 |
| 20260508073603 | 56 | 13 | 1.0 | 2.0 | 0.00 | 0.00 | 0.00 | 75 | 1013.4 |
| 20260508072703 | 57 | 37 | 2.0 | 3.0 | 0.00 | 0.00 | 0.00 | 76 | 1013.2 |
| 20260508072012 | 57 | 41 | 2.0 | 3.0 | 0.00 | 0.00 | 0.00 | 79 | 1013.2 |
| 20260508071114 | 55 | 332 | 2.0 | 3.0 | 0.00 | 0.00 | 0.00 | 77 | 1013.4 |
| 20260508070003 | 54 | 65 | 1.0 | 2.0 | 0.00 | 0.00 | 0.00 | 75 | 1013.3 |
| 20260508065403 | 55 | 65 | 2.0 | 2.0 | 0.00 | 0.00 | 0.00 | 74 | 1013.1 |
| 20260508064503 | 56 | 80 | 2.0 | 3.0 | 0.00 | 0.00 | 0.00 | 73 | 1013.2 |
| 20260508063603 | 57 | 328 | 2.0 | 4.0 | 0.00 | 0.00 | 0.00 | 76 | 1013.1 |
| 20260508062703 | 56 | 318 | 2.0 | 3.0 | 0.00 | 0.00 | 0.00 | 80 | 1012.9 |
| 20260508061803 | 56 | 30 | 2.0 | 4.0 | 0.00 | 0.00 | 0.00 | 85 | 1012.9 |
| 20260508060903 | 54 | 5 | 2.0 | 3.0 | 0.00 | 0.00 | 0.00 | 91 | 1013.1 |
| 20260508060213 | 53 | 324 | 1.0 | 2.0 | 0.00 | 0.00 | 0.00 | 91 | 1013.1 |
| 20260508055403 | 52 | 356 | 1.0 | 2.0 | 0.00 | 0.00 | 0.00 | 91 | 1013.2 |
| 20260508054503 | 51 | 360 | 1.0 | 2.0 | 0.00 | 0.00 | 0.00 | 90 | 1012.9 |
| 20260508053603 | 50 | 357 | 1.0 | 2.0 | 0.00 | 0.00 | 0.00 | 90 | 1012.8 |
| 20260508052703 | 50 | 315 | 1.0 | 2.0 | 0.00 | 0.00 | 0.00 | 90 | 1012.9 |
| 20260508051803 | 50 | 289 | 0.0 | 2.0 | 0.00 | 0.00 | 0.00 | 90 | 1012.9 |
| 20260508050903 | 49 | 349 | 1.0 | 2.0 | 0.00 | 0.00 | 0.00 | 89 | 1012.9 |
| 20260508050003 | 49 | 28 | 1.0 | 2.0 | 0.00 | 0.00 | 0.00 | 88 | 1012.9 |
| 20260508045614 | 49 | 14 | 1.0 | 2.0 | 0.00 | 0.00 | 0.00 | 88 | 1012.8 |
| 20260508044503 | 49 | 360 | 1.0 | 2.0 | 0.00 | 0.00 | 0.00 | 87 | 1012.7 |
| 20260508043603 | 50 | 321 | 1.0 | 2.0 | 0.00 | 0.00 | 0.00 | 87 | 1012.7 |
| 20260508042703 | 50 | 315 | 0.0 | 1.0 | 0.00 | 0.00 | 0.00 | 86 | 1012.9 |
| 20260508041803 | 50 | 315 | 0.0 | 2.0 | 0.00 | 0.00 | 0.00 | 86 | 1013.0 |
| 20260508040903 | 50 | 315 | 1.0 | 2.0 | 0.00 | 0.00 | 0.00 | 86 | 1012.7 |
| 20260508040214 | 50 | 315 | 0.0 | 1.0 | 0.00 | 0.00 | 0.00 | 86 | 1013.0 |
| 20260508035403 | 50 | 315 | 0.0 | 1.0 | 0.00 | 0.00 | 0.00 | 86 | 1013.0 |
| 20260508034713 | 50 | 315 | 0.0 | 1.0 | 0.00 | 0.00 | 0.00 | 86 | 1012.9 |
| 20260508033814 | 50 | 315 | 0.0 | 2.0 | 0.00 | 0.00 | 0.00 | 86 | 1013.1 |
| 20260508032703 | 50 | 315 | 0.0 | 2.0 | 0.00 | 0.00 | 0.00 | 86 | 1012.9 |
| 20260508031803 | 50 | 315 | 0.0 | 1.0 | 0.00 | 0.00 | 0.00 | 86 | 1013.1 |
| 20260508031114 | 50 | 298 | 1.0 | 2.0 | 0.00 | 0.00 | 0.00 | 86 | 1013.1 |
| 20260508030214 | 50 | 211 | 1.0 | 2.0 | 0.00 | 0.00 | 0.00 | 86 | 1013.2 |
| 20260508025403 | 50 | 157 | 1.0 | 2.0 | 0.00 | 0.00 | 0.00 | 86 | 1013.1 |
| 20260508024503 | 50 | 162 | 0.0 | 2.0 | 0.00 | 0.00 | 0.00 | 86 | 1013.0 |
| 20260508023603 | 50 | 112 | 1.0 | 2.0 | 0.00 | 0.00 | 0.00 | 85 | 1013.3 |
| 20260508022703 | 51 | 321 | 0.0 | 2.0 | 0.00 | 0.00 | 0.00 | 84 | 1013.3 |
| 20260508021803 | 51 | 279 | 1.0 | 2.0 | 0.00 | 0.00 | 0.00 | 84 | 1013.2 |
| 20260508020903 | 51 | 174 | 1.0 | 2.0 | 0.00 | 0.00 | 0.00 | 84 | 1013.2 |
| 20260508020004 | 51 | 176 | 1.0 | 3.0 | 0.00 | 0.00 | 0.00 | 83 | 1013.1 |
| 20260508015613 | 51 | 156 | 1.0 | 3.0 | 0.00 | 0.00 | 0.00 | 82 | 1013.2 |
| 20260508014504 | 51 | 97 | 1.0 | 2.0 | 0.00 | 0.00 | 0.00 | 82 | 1013.1 |
| 20260508013603 | 51 | 190 | 1.0 | 2.0 | 0.00 | 0.00 | 0.00 | 82 | 1013.4 |
| 20260508012703 | 51 | 222 | 1.0 | 2.0 | 0.00 | 0.00 | 0.00 | 82 | 1013.7 |
| 20260508011803 | 51 | 109 | 2.0 | 2.0 | 0.00 | 0.00 | 0.00 | 81 | 1013.4 |
| 20260508010903 | 51 | 72 | 1.0 | 2.0 | 0.00 | 0.00 | 0.00 | 81 | 1013.5 |
| 20260508010003 | 51 | 204 | 1.0 | 2.0 | 0.00 | 0.00 | 0.00 | 80 | 1013.6 |
| 20260508005403 | 51 | 334 | 1.0 | 2.0 | 0.00 | 0.00 | 0.00 | 80 | 1013.7 |
| 20260508004503 | 51 | 235 | 1.0 | 2.0 | 0.00 | 0.00 | 0.00 | 80 | 1013.6 |
| 20260508003603 | 51 | 218 | 1.0 | 2.0 | 0.00 | 0.00 | 0.00 | 79 | 1013.5 |
| 20260508002914 | 51 | 212 | 1.0 | 2.0 | 0.00 | 0.00 | 0.00 | 78 | 1013.8 |
| 20260508001803 | 52 | 326 | 1.0 | 2.0 | 0.00 | 0.00 | 0.00 | 76 | 1013.7 |
| 20260508000903 | 52 | 33 | 1.0 | 2.0 | 0.00 | 0.00 | 0.00 | 75 | 1013.4 |
| 20260508000003 | 52 | 176 | 2.0 | 4.0 | 0.00 | 0.00 | 0.00 | 74 | 1013.5 |
| 20260507235403 | 52 | 186 | 2.0 | 4.0 | 0.00 | 0.00 | 0.00 | 73 | 1013.7 |
| 20260507234503 | 52 | 181 | 2.0 | 4.0 | 0.00 | 0.00 | 0.00 | 72 | 1013.9 |
| 20260507233603 | 52 | 188 | 2.0 | 4.0 | 0.00 | 0.00 | 0.00 | 71 | 1013.8 |
| 20260507232703 | 52 | 124 | 2.0 | 4.0 | 0.00 | 0.00 | 0.00 | 70 | 1013.8 |
| 20260507231803 | 52 | 211 | 2.0 | 3.0 | 0.00 | 0.00 | 0.00 | 68 | 1013.8 |
| 20260507230903 | 52 | 172 | 1.0 | 2.0 | 0.00 | 0.00 | 0.00 | 67 | 1014.1 |
| 20260507230004 | 52 | 243 | 1.0 | 2.0 | 0.00 | 0.00 | 0.00 | 65 | 1014.0 |
| 20260507225403 | 52 | 246 | 1.0 | 2.0 | 0.00 | 0.00 | 0.00 | 65 | 1014.1 |
| 20260507224504 | 52 | 150 | 1.0 | 3.0 | 0.00 | 0.00 | 0.00 | 64 | 1013.8 |
| 20260507223603 | 52 | 156 | 1.0 | 2.0 | 0.00 | 0.00 | 0.00 | 62 | 1013.8 |
| 20260507222703 | 52 | 220 | 0.0 | 2.0 | 0.00 | 0.00 | 0.00 | 61 | 1013.9 |
| 20260507222013 | 53 | 180 | 1.0 | 2.0 | 0.00 | 0.00 | 0.00 | 61 | 1013.9 |
| 20260507220903 | 53 | 182 | 2.0 | 2.0 | 0.00 | 0.00 | 0.00 | 60 | 1013.9 |
| 20260507220003 | 53 | 308 | 1.0 | 2.0 | 0.00 | 0.00 | 0.00 | 60 | 1013.9 |
| 20260507215613 | 53 | 297 | 0.0 | 2.0 | 0.00 | 0.00 | 0.00 | 60 | 1013.9 |
| 20260507214712 | 52 | 225 | 0.0 | 1.0 | 0.00 | 0.00 | 0.00 | 60 | 1014.0 |
| 20260507213603 | 53 | 225 | 0.0 | 1.0 | 0.00 | 0.00 | 0.00 | 60 | 1013.9 |
| 20260507212703 | 53 | 198 | 0.0 | 1.0 | 0.00 | 0.00 | 0.00 | 58 | 1014.2 |
| 20260507211803 | 53 | 201 | 1.0 | 2.0 | 0.00 | 0.00 | 0.00 | 57 | 1014.0 |
| 20260507211114 | 53 | 209 | 1.0 | 2.0 | 0.00 | 0.00 | 0.00 | 57 | 1014.0 |
| 20260507210004 | 53 | 185 | 1.0 | 2.0 | 0.00 | 0.00 | 0.00 | 58 | 1013.8 |
| 20260507205613 | 53 | 269 | 1.0 | 2.0 | 0.00 | 0.00 | 0.00 | 59 | 1014.0 |
| 20260507204712 | 53 | 212 | 1.0 | 2.0 | 0.00 | 0.00 | 0.00 | 61 | 1013.9 |
| 20260507203814 | 53 | 190 | 1.0 | 2.0 | 0.00 | 0.00 | 0.00 | 62 | 1014.0 |
| 20260507202703 | 53 | 90 | 1.0 | 2.0 | 0.00 | 0.00 | 0.00 | 64 | 1013.6 |
| 20260507201803 | 53 | 90 | 0.0 | 2.0 | 0.00 | 0.00 | 0.00 | 65 | 1013.6 |
| 20260507200903 | 53 | 90 | 0.0 | 1.0 | 0.00 | 0.00 | 0.00 | 66 | 1013.7 |
| 20260507200003 | 54 | 165 | 1.0 | 2.0 | 0.00 | 0.00 | 0.00 | 67 | 1013.4 |
| 20260507195403 | 54 | 164 | 0.0 | 2.0 | 0.00 | 0.00 | 0.00 | 67 | 1013.3 |
| 20260507194503 | 54 | 172 | 1.0 | 2.0 | 0.00 | 0.00 | 0.00 | 67 | 1013.4 |
| 20260507193603 | 54 | 103 | 1.0 | 2.0 | 0.00 | 0.00 | 0.00 | 66 | 1013.4 |
| 20260507192703 | 54 | 160 | 1.0 | 2.0 | 0.00 | 0.00 | 0.00 | 65 | 1013.1 |
| 20260507191803 | 54 | 166 | 1.0 | 2.0 | 0.00 | 0.00 | 0.00 | 61 | 1013.5 |
| 20260507190903 | 55 | 154 | 1.0 | 2.0 | 0.00 | 0.00 | 0.00 | 60 | 1012.9 |
| 20260507190004 | 55 | 166 | 1.0 | 2.0 | 0.00 | 0.00 | 0.00 | 58 | 1013.0 |
| 20260507185403 | 55 | 144 | 1.0 | 3.0 | 0.00 | 0.00 | 0.00 | 56 | 1012.9 |
| 20260507184503 | 55 | 199 | 2.0 | 4.0 | 0.00 | 0.00 | 0.00 | 54 | 1013.0 |